TimeCST,TemperatureF,Dew PointF,Humidity,Sea Level PressureIn,VisibilityMPH,Wind Direction,Wind SpeedMPH,Gust SpeedMPH,PrecipitationIn,Events,Conditions,WindDirDegrees,DateUTC
12:54 AM,10.0,-2.0,58,30.31,10.0,NW,10.4,-,N/A,,Clear,310,2012-12-10 06:54:00
1:54 AM,7.0,-2.9,64,30.29,10.0,NW,8.1,-,N/A,,Clear,310,2012-12-10 07:54:00
2:54 AM,7.0,-4.0,61,30.29,10.0,WNW,11.5,-,N/A,,Clear,300,2012-12-10 08:54:00
3:54 AM,5.0,-5.1,63,30.27,10.0,WNW,6.9,-,N/A,,Clear,300,2012-12-10 09:54:00
4:54 AM,1.9,-6.0,69,30.25,10.0,West,3.5,-,N/A,,Clear,270,2012-12-10 10:54:00
5:54 AM,1.0,-7.1,69,30.24,10.0,WSW,5.8,-,N/A,,Clear,240,2012-12-10 11:54:00
6:54 AM,-0.9,-7.1,75,30.23,10.0,SW,5.8,-,N/A,,Clear,220,2012-12-10 12:54:00
7:54 AM,-0.0,-6.0,76,30.22,10.0,WSW,5.8,-,N/A,,Clear,250,2012-12-10 13:54:00
8:54 AM,8.1,-0.0,70,30.21,10.0,WSW,8.1,-,N/A,,Clear,250,2012-12-10 14:54:00
9:54 AM,18.0,3.0,52,30.19,10.0,WSW,12.7,-,N/A,,Clear,250,2012-12-10 15:54:00
10:54 AM,26.1,3.0,37,30.15,10.0,WSW,15.0,-,N/A,,Clear,240,2012-12-10 16:54:00
11:54 AM,32.0,1.0,27,30.11,10.0,SW,18.4,-,N/A,,Clear,230,2012-12-10 17:54:00
12:54 PM,36.0,1.0,23,30.07,10.0,WSW,13.8,21.9,N/A,,Clear,250,2012-12-10 18:54:00
1:54 PM,39.9,-2.9,16,30.01,10.0,WSW,16.1,24.2,N/A,,Clear,240,2012-12-10 19:54:00
2:54 PM,41.0,-2.0,16,29.98,10.0,WSW,12.7,-,N/A,,Clear,250,2012-12-10 20:54:00
3:54 PM,42.1,-7.1,12,29.97,10.0,West,11.5,-,N/A,,Clear,280,2012-12-10 21:54:00
4:54 PM,37.9,-4.0,17,30.00,10.0,West,6.9,-,N/A,,Clear,270,2012-12-10 22:54:00
5:54 PM,35.1,-2.9,20,30.00,10.0,West,3.5,-,N/A,,Clear,260,2012-12-10 23:54:00
6:54 PM,32.0,-2.9,22,30.02,10.0,West,3.5,-,N/A,,Clear,260,2012-12-11 00:54:00
7:54 PM,30.0,-2.9,24,30.04,10.0,SW,4.6,-,N/A,,Clear,220,2012-12-11 01:54:00
8:54 PM,24.1,-4.0,29,30.04,10.0,Calm,Calm,-,N/A,,Clear,0,2012-12-11 02:54:00
9:54 PM,23.0,-2.9,32,30.03,10.0,West,6.9,-,N/A,,Clear,280,2012-12-11 03:54:00
10:54 PM,15.1,-0.9,49,30.04,10.0,NNW,9.2,-,N/A,,Clear,340,2012-12-11 04:54:00
11:54 PM,21.0,-2.0,36,30.03,10.0,NW,6.9,-,N/A,,Clear,320,2012-12-11 05:54:00